Hourly Data Report for November 12, 2016

All times are specified in Local Standard Time (LST). Add 1 hour to adjust for Daylight Saving Time where and when it is observed.

VICTORIA UNIVERSITY CS
BRITISH COLUMBIA

48°27'25.200" N
123°18'16.600" W
60.10 m
1018598
71783
WYJ

Download Data

Hourly Data (November 2016)
Hourly Data Report for November 12, 2016
TIME Temp Definition
°C
Dew Point Definition
°C
Rel Hum Definition
%
Wind Dir Definition
10's deg

Wind Spd Definition
km/h
Visibility Definition
km
Stn Press Definition
kPa
Hmdx Definition


Wind Chill Definition


Weather Definition


00:00 11.1 10.8 98 33 13   100.01     LegendNANA
01:00 11.3 10.9 97 34 12   99.93     LegendNANA
02:00 11.6 10.9 96 32 9   99.92     LegendNANA
03:00 11.5 10.8 96 36 8   99.92     LegendNANA
04:00 10.9 10.4 97 32 6   99.92     LegendNANA
05:00 10.2 9.9 98 2 3   99.89     LegendNANA
06:00 10.1 9.9 99 5 2   99.88     LegendNANA
07:00 10.4 10.3 99 31 4   99.87     LegendNANA
08:00 11.1 11.0 99 34 7   99.93     LegendNANA
09:00 11.2 11.1 99 2 5   100.01     LegendNANA
10:00 11.9 11.7 99 29 3   100.18     LegendNANA
11:00 13.1 12.9 99 24 6   100.33     LegendNANA
12:00 14.0 11.8 87 25 16   100.47     LegendNANA
13:00 13.4 9.5 78 25 20   100.67     LegendNANA
14:00 12.5 8.9 79 24 19   100.81     LegendNANA
15:00 13.0 7.8 71 24 16   101.02     LegendNANA
16:00 12.0 7.5 74 25 14   101.18     LegendNANA
17:00 11.5 8.0 79 27 12   101.23     LegendNANA
18:00 11.5 7.8 78 25 13   101.17     LegendNANA
19:00 11.5 5.6 67 30 8   101.26     LegendNANA
20:00 10.7 6.7 76 27 14   101.21     LegendNANA
21:00 10.1 6.8 80 16 4   101.35     LegendNANA
22:00 8.6 7.0 90 11 2   101.40     LegendNANA
23:00 9.0 8.1 95 11 3   101.42     LegendNANA

Notes on Data Quality.

Legend

  • E = Estimated
  • M = Missing
  • NA = Not Available
Date modified: